Milledgeville, GA

8:28 PM EDT on August 25, 2016 (GMT -0400)
Baldwin County

Weather History for KMLJ - September, 2013

Change the Weather History Date:

Wednesday, September 18, 2013

  Actual Average (KOKZ) Record (KOKZ)
Temperature  
Mean Temperature 75 °F -  
Max Temperature 82 °F 84 °F 86 °F (2015)
Min Temperature 68 °F 64 °F 65 °F (2015)
Cooling Degree Days 10    
Growing Degree Days 25 (Base 50)    
Moisture  
Dew Point 53 °F    
Average Humidity 49    
Maximum Humidity 60    
Minimum Humidity 28    
Precipitation  
Precipitation 0.00 in - - ()
Sea Level Pressure  
Sea Level Pressure 30.19 in    
Wind  
Wind Speed 3 mph (East)    
Max Wind Speed 7 mph    
Max Gust Speed -    
Visibility 8 miles    
Events      
Averages and records for this station are not official NWS values.
T = Trace of Precipitation, MM = Missing Value Source: NWS Daily Summary

Daily Weather History Graph

Daily Weather History Graph

Search for Another Location

Airport or City:

Trip Planner

Search our weather history database for the weather conditions in past years. The results will help you decide how hot, cold, wet, or windy it might be!

Date:

Astronomy

Sep. 18, 2013 Rise Set
Actual Time 7:18 AM EDT 7:34 PM EDT
Civil Twilight 6:53 AM EDT 7:59 PM EDT
Nautical Twilight 6:24 AM EDT 8:28 PM EDT
Astronomical Twilight 5:55 AM EDT 8:57 PM EDT
Moon 6:58 PM EDT (9/18) 6:20 AM EDT (9/18)
Length of Visible Light 13h 05m
Length of Day
12h 16m
Waxing Gibbous, 99% of the Moon is Illuminated
Sep 18
Waxing Gibbous
Sep 19
Full
Sep 26
Last Quarter
Oct 4
New
Oct 11
First Quarter

Hourly Weather History & Observations

Time (EDT) Temp. Dew Point Humidity Pressure Visibility Wind Dir Wind Speed Gust Speed Precip Events Conditions
12:15 AM 71.6 °F 57.2 °F 60% 30.20 in 10.0 mi ENE 3.5 mph - N/A   Overcast
12:35 AM 71.6 °F 57.2 °F 60% 30.20 in 10.0 mi ENE 3.5 mph - N/A   Overcast
12:55 AM 71.6 °F 57.2 °F 60% 30.20 in 10.0 mi ENE 3.5 mph - N/A   Overcast
1:15 AM 71.6 °F 55.4 °F 57% 30.20 in 10.0 mi ENE 4.6 mph - N/A   Overcast
1:35 AM 71.6 °F 55.4 °F 57% 30.20 in 10.0 mi Calm Calm - N/A   Overcast
1:55 AM 71.6 °F 55.4 °F 57% 30.20 in 10.0 mi Calm Calm - N/A   Overcast
2:15 AM 71.6 °F 55.4 °F 57% 30.20 in 10.0 mi East 3.5 mph - N/A   Overcast
2:35 AM 71.6 °F 55.4 °F 57% 30.19 in 10.0 mi East 3.5 mph - N/A   Overcast
2:55 AM 71.6 °F 53.6 °F 53% 30.19 in 10.0 mi East 5.8 mph - N/A   Overcast
3:15 AM 71.6 °F 53.6 °F 53% 30.19 in 10.0 mi East 3.5 mph - N/A   Overcast
3:35 AM 71.6 °F 53.6 °F 53% 30.19 in 10.0 mi ENE 3.5 mph - N/A   Mostly Cloudy
3:55 AM 71.6 °F 53.6 °F 53% 30.19 in 10.0 mi East 4.6 mph - N/A   Overcast
4:15 AM 71.6 °F 53.6 °F 53% 30.19 in 10.0 mi ENE 3.5 mph - N/A   Overcast
4:35 AM 71.6 °F 53.6 °F 53% 30.19 in 10.0 mi ENE 3.5 mph - N/A   Overcast
4:55 AM 69.8 °F 53.6 °F 56% 30.19 in 10.0 mi ENE 3.5 mph - N/A   Overcast
5:15 AM 69.8 °F 53.6 °F 56% 30.19 in 10.0 mi ENE 4.6 mph - N/A   Overcast
5:35 AM 69.8 °F 53.6 °F 56% 30.19 in 10.0 mi NE 4.6 mph - N/A   Overcast
5:55 AM 69.8 °F 53.6 °F 56% 30.20 in 10.0 mi ENE 4.6 mph - N/A   Overcast
6:15 AM 69.8 °F 53.6 °F 56% 30.20 in 10.0 mi Calm Calm - N/A   Overcast
6:35 AM 69.8 °F 53.6 °F 56% 30.20 in 10.0 mi ENE 3.5 mph - N/A   Overcast
6:55 AM 68.0 °F 53.6 °F 60% 30.21 in 10.0 mi East 3.5 mph - N/A   Mostly Cloudy
7:15 AM 68.0 °F 53.6 °F 60% 30.21 in 10.0 mi East 5.8 mph - N/A   Mostly Cloudy
7:35 AM 68.0 °F 53.6 °F 60% 30.21 in 10.0 mi East 3.5 mph - N/A   Overcast
7:55 AM 68.0 °F 53.6 °F 60% 30.22 in 10.0 mi East 4.6 mph - N/A   Overcast
8:15 AM 68.0 °F 53.6 °F 60% 30.22 in 3.0 mi ENE 6.9 mph - N/A   Haze
8:35 AM 69.8 °F 53.6 °F 56% 30.22 in 3.0 mi East 4.6 mph - N/A   Haze
8:55 AM 69.8 °F 53.6 °F 56% 30.23 in 4.0 mi East 4.6 mph - N/A   Haze
9:15 AM 69.8 °F 51.8 °F 53% 30.24 in 1.5 mi East 5.8 mph - N/A   Haze
9:35 AM 69.8 °F 51.8 °F 53% 30.24 in 1.0 mi East 5.8 mph - N/A   Haze
9:55 AM 71.6 °F 51.8 °F 50% 30.24 in 3.0 mi East 5.8 mph - N/A   Haze
10:15 AM 71.6 °F 51.8 °F 50% 30.25 in 1.2 mi East 6.9 mph - N/A   Haze
10:35 AM 73.4 °F 51.8 °F 47% 30.25 in 1.2 mi East 6.9 mph - N/A   Haze
10:55 AM 73.4 °F 51.8 °F 47% 30.25 in 1.5 mi East 6.9 mph - N/A   Haze
11:15 AM 73.4 °F 51.8 °F 47% 30.25 in 2.5 mi ESE 4.6 mph - N/A   Haze
11:35 AM 73.4 °F 51.8 °F 47% 30.24 in 3.0 mi SE 3.5 mph - N/A   Haze
11:55 AM 75.2 °F 53.6 °F 47% 30.24 in 5.0 mi Calm Calm - N/A   Haze
12:15 PM 75.2 °F 51.8 °F 44% 30.24 in 7.0 mi Calm Calm - N/A   Overcast
12:35 PM 77.0 °F 51.8 °F 41% 30.24 in 1.5 mi East 4.6 mph - N/A   Haze
12:55 PM 77.0 °F 51.8 °F 41% 30.23 in 5.0 mi Calm Calm - N/A   Haze
1:15 PM 77.0 °F 51.8 °F 41% 30.23 in 10.0 mi East 3.5 mph - N/A   Overcast
1:35 PM 77.0 °F 51.8 °F 41% 30.22 in 10.0 mi East 4.6 mph - N/A   Overcast
1:55 PM 78.8 °F 51.8 °F 39% 30.21 in 10.0 mi Calm Calm - N/A   Mostly Cloudy
2:15 PM 78.8 °F 51.8 °F 39% 30.20 in 7.0 mi East 5.8 mph - N/A   Mostly Cloudy
2:35 PM 78.8 °F 50.0 °F 36% 30.19 in 10.0 mi Calm Calm - N/A   Overcast
2:55 PM 78.8 °F 51.8 °F 39% 30.19 in 10.0 mi Calm Calm - N/A   Overcast
3:15 PM 77.0 °F 51.8 °F 41% 30.18 in 10.0 mi Calm Calm - N/A   Overcast
3:35 PM 80.6 °F 50.0 °F 34% 30.18 in 10.0 mi Calm Calm - N/A   Mostly Cloudy
3:55 PM 78.8 °F 51.8 °F 39% 30.17 in 10.0 mi Calm Calm - N/A   Mostly Cloudy
4:15 PM 80.6 °F 51.8 °F 37% 30.16 in 10.0 mi Calm Calm - N/A   Mostly Cloudy
4:35 PM 80.6 °F 48.2 °F 32% 30.16 in 10.0 mi Calm Calm - N/A   Mostly Cloudy
4:55 PM 82.4 °F 46.4 °F 28% 30.15 in 4.0 mi NE 4.6 mph - N/A   Haze
5:15 PM 82.4 °F 46.4 °F 28% 30.15 in 10.0 mi Calm Calm - N/A   Clear
5:35 PM 80.6 °F 48.2 °F 32% 30.14 in 10.0 mi East 3.5 mph - N/A   Clear
5:55 PM 80.6 °F 48.2 °F 32% 30.14 in 10.0 mi NE 3.5 mph - N/A   Clear
6:15 PM 80.6 °F 50.0 °F 34% 30.14 in 10.0 mi Calm Calm - N/A   Clear
6:35 PM 80.6 °F 50.0 °F 34% 30.14 in 10.0 mi Calm Calm - N/A   Clear
6:55 PM 80.6 °F 50.0 °F 34% 30.14 in 7.0 mi East 4.6 mph - N/A   Clear
7:15 PM 78.8 °F 51.8 °F 39% 30.14 in 10.0 mi Calm Calm - N/A   Clear
7:35 PM 77.0 °F 53.6 °F 44% 30.14 in 10.0 mi Calm Calm - N/A   Clear
7:55 PM 77.0 °F 55.4 °F 47% 30.14 in 10.0 mi Calm Calm - N/A   Clear
8:15 PM 77.0 °F 55.4 °F 47% 30.15 in 10.0 mi Calm Calm - N/A   Clear
8:35 PM 75.2 °F 55.4 °F 50% 30.15 in 5.0 mi Calm Calm - N/A   Haze
8:55 PM 73.4 °F 55.4 °F 53% 30.16 in 0.5 mi ENE 3.5 mph - N/A   Haze
9:15 PM 73.4 °F 53.6 °F 50% 30.17 in 0.8 mi ENE 4.6 mph - N/A   Haze
9:35 PM 73.4 °F 53.6 °F 50% 30.17 in 7.0 mi Calm Calm - N/A   Clear
9:55 PM 71.6 °F 53.6 °F 53% 30.18 in 10.0 mi Calm Calm - N/A   Clear
10:15 PM 71.6 °F 53.6 °F 53% 30.17 in 10.0 mi Calm Calm - N/A   Clear
10:35 PM 69.8 °F 53.6 °F 56% 30.18 in 10.0 mi Calm Calm - N/A   Clear
10:55 PM 69.8 °F 55.4 °F 60% 30.18 in 10.0 mi Calm Calm - N/A   Clear
11:15 PM 71.6 °F 53.6 °F 53% 30.18 in 10.0 mi East 3.5 mph - N/A   Clear
11:35 PM 69.8 °F 53.6 °F 56% 30.18 in 10.0 mi Calm Calm - N/A   Clear
11:55 PM 69.8 °F 55.4 °F 60% 30.18 in 10.0 mi Calm Calm - N/A   Clear